Preview of NWS' New Version of Forecast
This preview is not operational and should not be used for support decisions.

Regional Weather Roundup (RWR)

Issued by National Weather Service (NWS)

                            
000
ASUS43 KBIS 230702
RWRND 

NORTH DAKOTA REGIONAL WEATHER ROUNDUP
NATIONAL WEATHER SERVICE BISMARCK ND
100 AM CST SAT FEB 23 2019

NOTE: "FAIR" INDICATES FEW OR NO CLOUDS BELOW 12,000 FEET WITH NO
SIGNIFICANT WEATHER AND/OR OBSTRUCTIONS TO VISIBILITY.


NDZ001>003-009>011-017-230800-
NORTHWEST NORTH DAKOTA
  
CITY           SKY/WX    TMP DP  RH WIND       PRES   REMARKS
WILLISTON      CLEAR     -2  -5  87 CALM      29.91F                  
MINOT          CLOUDY     1  -3  83 SE3       29.96F FOG              
MINOT AFB      CLOUDY    -6 -11  79 SE3         N/A  HAZE             
$$
 
NDZ018>021-031>035-040>046-230800-
SOUTHWEST NORTH DAKOTA
  
CITY           SKY/WX    TMP DP  RH WIND       PRES   REMARKS
BISMARCK       CLOUDY    13  10  88 NE3       29.98F                  
DICKINSON      CLEAR      1  -2  87 S5        29.86  WCI  -9          
GARRISON         N/A      4   1  88 CALM      29.95F                  
HETTINGER ARPT MOCLDY     7   4  87 SW5       29.90S WCI  -2          
$$
 
NDZ004>008-012>016-024-026-027-054-230800-
NORTHEAST NORTH DAKOTA
  
CITY           SKY/WX    TMP DP  RH WIND       PRES   REMARKS
GRAND FORKS    LGT SNOW  16  12  84 E6        30.08F FOG     WCI   7  
GRND FRKS AFB  LGT SNOW  13  10  89 NE3       30.08F FOG              
DEVILS LAKE    LGT SNOW  11   9  92 SE8       30.02F FOG     WCI  -1  
$$
 
NDZ022-023-025-028>030-036>039-047>053-230800-
SOUTHEAST NORTH DAKOTA
  
CITY           SKY/WX    TMP DP  RH WIND       PRES   REMARKS
FARGO          LGT SNOW  22  19  89 SE12      30.06F FOG     WCI  10  
JAMESTOWN      LGT SNOW  14  12  92 E10       29.97F FOG     WCI   1  
$$